Wind_Speed
18 19 19 20 22 25 27 28 26 26 27 27 27 27 27 26 24 23 21 21 21 21 21 21 21 20 17 16 16 15 15 15 15 14 14 15 15 15 16 16 16 16 17 17 17 19 19 19 19 20 20 19 19 21 21 22 25 24 19 19 21 18 17 17 13 10 12 14 13 11 10 8 7 8 10 12 13 12 11 10 10 10 10 10 10
18 20 19 20 22 25 28 29 27 26 26 26 27 27 27 25 24 22 21 20 20 21 21 21 21 19 16 15 16 16 15 15 15 14 14 15 15 15 16 16 15 16 18 18 17 19 19 19 18 18 19 19 19 21 21 21 25 26 22 21 21 20 17 16 17 16 15 14 14 15 13 11 10 9 10 12 13 12 12 10 9 9 9 10 10
14 16 17 20 22 24 27 29 28 27 26 26 27 26 26 25 24 23 21 20 21 21 21 21 19 17 16 16 16 16 16 15 15 14 14 14 14 14 14 15 15 16 18 18 17 18 19 20 19 18 18 19 19 20 21 21 24 27 26 22 20 20 17 15 16 19 19 16 14 16 17 15 12 9 8 9 12 12 11 9 7 7 8 9 10
13 13 14 18 21 24 26 26 27 28 26 26 27 27 26 26 24 23 22 21 21 22 21 19 18 17 17 17 17 16 16 16 15 14 13 13 13 14 14 14 15 15 15 16 16 16 18 19 19 18 17 17 19 20 21 22 23 26 27 23 21 20 17 15 15 18 21 19 15 15 17 16 13 10 8 9 12 13 11 8 7 7 7 8 10
13 13 14 17 22 24 26 26 26 28 27 27 29 28 27 27 24 23 23 22 21 22 22 19 18 18 17 16 15 14 15 16 15 14 13 12 13 13 14 15 15 15 14 15 15 15 17 17 16 17 17 16 19 20 21 22 23 25 25 23 22 20 16 14 14 18 21 19 14 14 16 17 15 12 11 11 12 13 13 12 11 10 10 10 11
12 12 12 16 21 24 28 28 27 28 27 27 29 29 27 25 24 24 23 21 21 23 22 20 19 18 16 16 13 12 14 16 15 14 13 13 13 13 14 14 14 15 14 14 14 14 15 15 15 16 15 16 19 20 19 21 22 21 21 22 22 20 16 14 16 21 21 16 13 13 14 16 16 14 13 13 13 13 13 13 14 14 14 14 13
11 14 15 18 22 25 28 29 30 30 29 28 28 27 25 24 24 24 22 21 23 24 23 21 20 18 17 17 15 14 16 17 16 16 14 13 14 14 14 15 15 15 14 12 12 12 13 13 15 15 13 15 19 19 18 20 19 19 20 22 21 17 16 16 18 23 21 15 13 13 12 14 17 16 15 15 16 17 16 16 16 16 17 17 17
11 15 19 22 25 28 30 32 33 32 31 30 29 25 24 24 25 24 22 22 25 26 24 22 21 19 19 18 18 19 20 19 17 17 15 14 14 14 14 15 16 16 14 12 11 10 11 11 12 12 13 16 19 18 18 18 18 19 21 22 20 16 16 17 19 23 22 17 15 13 12 14 16 17 18 18 19 19 18 19 19 17 17 18 18
11 15 19 22 26 30 32 33 33 33 32 32 30 27 26 26 27 25 24 25 27 26 24 22 22 20 20 21 22 22 21 19 17 17 16 14 13 14 14 16 17 17 15 13 12 11 10 10 10 11 13 17 19 18 16 14 13 17 20 20 18 16 16 18 19 21 22 19 16 14 14 16 17 19 20 21 20 18 17 19 19 17 17 19 19
11 13 16 19 21 23 27 31 32 32 33 32 30 28 28 28 28 27 27 27 28 26 23 23 23 21 22 24 24 23 22 20 17 17 17 16 14 14 14 15 17 17 16 15 15 14 12 11 11 12 15 19 20 19 17 11 9 12 15 15 15 14 16 19 19 19 21 20 16 14 15 16 17 19 20 20 20 19 19 21 22 20 20 22 21
10 11 15 18 19 18 22 31 32 30 32 33 31 29 30 30 29 29 29 29 28 26 24 23 24 22 22 24 24 22 22 21 19 18 18 18 16 14 14 15 16 17 17 18 17 15 13 12 13 14 17 20 21 21 19 14 10 10 10 10 9 10 14 18 18 18 20 20 17 14 14 14 16 18 19 20 21 22 23 24 24 23 24 26 24
10 10 12 14 17 19 21 28 31 30 32 34 32 31 32 33 31 30 31 31 29 27 25 24 23 23 23 24 24 23 22 21 21 20 20 21 19 17 16 17 18 19 19 18 17 15 14 13 13 13 13 13 15 18 18 16 13 11 11 11 10 11 14 16 17 17 17 17 15 13 12 12 14 14 14 15 16 17 18 18 19 20 21 24 25
13 11 11 10 13 18 19 22 28 32 35 35 34 34 35 35 34 33 33 32 29 28 27 25 24 24 24 24 24 23 21 21 22 22 22 22 20 19 18 18 19 20 19 17 16 15 14 13 14 13 11 10 10 12 14 15 15 14 13 13 13 13 13 14 15 16 15 15 15 13 13 12 13 13 13 13 14 14 14 15 15 16 17 19 20
14 12 11 11 11 14 16 17 21 28 36 38 37 37 37 36 35 35 34 32 30 28 27 27 26 25 24 23 22 23 22 21 21 22 22 21 21 21 21 19 19 19 18 17 16 15 15 14 14 14 12 11 10 10 11 14 16 16 15 14 14 15 15 15 14 15 15 15 15 15 15 15 15 15 15 16 17 18 18 19 19 21 21 22 23
16 14 11 10 9 10 15 17 17 23 33 39 39 38 38 36 35 36 35 32 30 29 28 27 27 25 23 21 20 21 21 21 21 21 20 20 20 22 23 21 20 20 19 17 17 17 17 16 15 15 14 13 12 11 11 12 13 14 13 13 13 14 15 16 16 16 16 16 16 16 16 17 18 18 19 19 20 21 23 24 25 26 27 28 28
23 20 16 12 6 4 13 17 18 22 31 38 38 37 38 38 35 34 35 32 30 29 28 27 26 24 21 19 18 18 20 22 22 21 20 20 20 22 22 21 19 19 18 19 19 19 19 18 17 16 15 14 14 13 13 12 11 11 11 11 12 12 13 15 16 17 17 18 18 19 19 20 20 21 22 23 23 24 24 25 25 27 29 31 32
26 26 24 21 14 6 8 14 17 20 26 33 37 38 37 38 36 34 34 32 31 30 28 26 24 22 21 18 15 16 20 23 23 21 20 21 21 21 20 19 18 18 19 21 22 21 20 19 18 17 16 15 15 15 14 13 12 12 11 11 12 12 12 12 13 14 15 15 16 17 18 19 20 20 22 23 24 26 26 27 27 29 31 32 34
26 25 25 24 21 17 11 11 15 19 23 26 32 37 37 36 36 35 33 32 31 30 28 27 24 22 20 17 15 16 19 21 22 21 20 20 21 21 20 19 19 20 21 23 23 21 20 19 17 17 16 15 15 15 15 14 14 14 14 14 14 14 14 14 14 15 15 16 17 18 19 20 21 22 23 24 26 27 28 29 30 32 33 34 35
24 23 23 22 21 21 19 17 17 20 23 23 25 31 36 36 35 34 33 32 31 29 28 26 24 22 20 18 17 17 18 19 19 19 19 19 20 20 20 20 20 21 22 23 22 20 19 18 17 17 16 16 16 16 15 16 16 16 16 16 16 16 16 16 17 18 18 19 19 20 21 22 24 24 26 27 28 29 30 31 32 33 34 34 34
21 20 20 20 19 20 19 19 20 19 20 21 23 26 32 34 33 32 32 30 28 28 26 25 24 23 21 20 19 18 18 18 18 18 18 19 19 20 20 21 21 21 20 20 20 19 18 17 17 17 16 16 16 16 16 16 16 16 16 16 16 16 17 17 18 18 19 19 20 21 22 23 24 25 26 27 28 29 29 30 29 29 30 30 30
20 18 17 18 19 20 19 18 18 18 18 19 21 24 27 28 27 26 25 24 23 24 23 23 23 22 20 20 20 20 19 19 19 18 18 18 19 20 20 20 20 20 19 19 19 18 17 16 15 15 15 14 14 14 14 14 14 15 15 15 15 16 16 17 17 18 19 19 20 21 22 23 23 24 24 24 24 24 25 24 24 24 25 27 28
24 22 19 17 16 17 19 19 18 16 14 13 15 19 23 23 22 21 19 17 17 18 18 18 19 19 18 17 17 17 18 18 18 19 19 18 17 18 19 19 19 19 19 19 18 17 16 15 14 13 12 12 12 13 14 14 14 15 15 15 16 16 16 16 17 18 19 19 20 21 22 21 21 22 22 22 20 20 22 23 22 23 23 23 24
25 26 26 23 19 15 15 16 18 18 16 13 12 14 18 20 20 20 18 16 15 15 14 14 16 16 16 15 14 14 12 11 13 16 17 16 16 16 17 19 19 19 19 19 19 18 16 15 14 13 13 14 14 15 15 15 15 15 15 15 16 16 16 17 17 17 18 18 18 19 19 19 19 19 19 19 19 19 20 21 21 21 22 22 22
22 25 27 27 25 21 16 12 12 15 17 17 16 15 16 18 20 20 18 17 17 17 15 14 14 15 15 14 13 11 9 7 7 10 11 11 11 13 15 17 18 19 19 19 18 16 15 14 13 13 14 15 15 15 14 13 12 12 13 13 14 14 15 15 15 15 15 15 15 16 16 17 17 17 17 17 18 19 19 20 21 23 24 25 26
20 22 24 26 26 26 23 19 14 11 10 11 13 14 14 15 17 19 19 18 17 17 17 16 15 14 14 15 15 13 10 9 7 6 6 5 5 7 10 12 14 16 16 16 15 14 14 14 13 12 12 12 11 11 11 10 10 10 10 11 11 11 11 12 12 12 12 13 13 13 14 15 16 17 18 18 20 21 22 23 24 25 26 28 29
18 19 21 22 23 24 25 24 22 18 13 9 8 9 10 10 13 15 16 16 15 14 14 13 12 11 12 13 13 12 10 9 8 6 5 4 3 2 3 6 8 10 11 12 12 13 12 12 11 11 11 10 9 9 9 9 9 8 8 8 8 9 9 10 10 11 11 12 12 13 14 16 17 18 19 21 22 24 25 26 26 26 26 27 29
15 17 18 19 20 21 22 22 23 23 21 17 12 10 10 9 10 11 11 12 12 12 11 11 10 11 12 13 11 9 9 8 6 7 7 5 3 2 2 3 5 7 9 10 11 12 12 11 11 10 10 9 9 9 8 8 8 8 8 8 8 9 9 10 10 11 11 12 14 15 16 18 19 20 22 22 23 24 24 25 25 25 25 26 27
13 13 14 15 17 18 18 19 20 21 21 20 17 15 13 12 11 11 11 11 11 10 10 11 11 12 13 12 10 8 7 6 5 6 7 6 5 5 5 5 6 8 9 11 12 13 12 11 11 10 9 9 9 9 8 8 8 8 8 8 9 9 10 11 11 12 13 14 15 17 18 19 20 21 21 20 21 21 21 22 23 24 24 24 25
11 11 10 12 13 14 14 15 16 18 19 19 17 16 14 12 11 12 12 11 10 9 8 9 9 9 9 9 7 5 4 3 3 4 5 5 7 8 8 9 9 10 10 11 12 12 12 11 11 10 10 9 9 9 9 9 9 9 9 9 10 11 11 11 12 12 13 14 15 16 16 17 17 16 16 16 16 17 18 20 21 21 21 20 20
9 10 9 10 11 11 12 12 13 14 16 18 17 16 13 11 8 7 7 6 6 4 4 4 5 5 4 3 2 2 2 3 4 4 6 9 11 12 12 12 12 12 12 12 11 11 11 11 11 11 10 10 9 9 9 8 8 8 8 8 8 9 9 9 10 10 11 11 11 11 11 11 11 11 12 13 14 15 17 18 18 18 17 16 16
9 10 10 10 10 11 11 11 11 11 11 13 15 15 14 13 12 10 8 7 5 3 2 1 1 2 1 1 2 3 3 6 8 9 11 12 13 14 15 14 13 12 12 10 10 9 9 9 9 9 8 7 7 6 5 4 4 5 5 5 6 6 6 6 6 6 6 6 6 7 8 9 10 12 13 14 15 16 16 16 16 15 14 14 15
11 11 11 10 12 13 12 11 10 8 7 8 10 11 12 12 13 13 13 12 10 8 7 6 6 6 6 6 6 6 8 10 11 11 12 13 14 14 14 13 12 11 9 8 7 6 6 5 5 4 3 2 2 2 2 2 3 4 4 4 4 3 2 3 4 4 5 6 7 8 9 10 12 13 14 15 15 15 16 15 15 14 13 11 11
11 11 11 10 10 12 12 12 10 7 5 5 6 7 7 7 10 12 12 12 12 10 9 8 8 8 8 8 8 8 9 10 11 11 12 12 12 12 11 11 11 10 8 6 4 4 4 3 2 1 0 1 1 1 2 3 3 3 2 2 2 4 5 6 6 6 7 8 9 10 11 12 12 13 13 13 14 14 14 14 13 12 12 11 11
7 9 10 9 8 9 10 10 9 6 5 6 6 5 3 4 6 8 8 9 10 10 9 8 8 7 6 6 7 7 7 8 9 10 11 12 11 9 9 9 9 9 7 6 4 3 3 2 1 1 1 2 1 0 1 1 1 3 5 6 7 8 8 7 6 7 8 9 10 10 11 12 12 12 12 12 12 13 13 14 14 15 15 16 16
6 6 7 7 7 8 8 8 7 5 4 6 7 6 5 4 4 4 5 6 7 8 8 8 8 6 4 4 4 5 5 6 7 7 9 10 10 9 8 8 8 8 7 6 4 3 2 2 1 1 2 2 1 1 2 4 6 8 8 8 8 8 8 7 7 8 9 9 9 10 10 11 11 12 13 14 14 15 16 16 17 18 19 19 19
8 6 6 6 6 5 6 6 6 4 4 6 7 7 7 6 5 3 3 5 6 6 7 7 7 7 6 4 2 3 4 5 6 7 8 9 9 9 8 8 8 7 6 5 4 3 3 2 2 2 2 1 1 3 5 7 8 8 8 8 7 7 7 7 8 8 8 9 10 10 11 12 13 14 15 16 17 17 17 17 17 17 18 18 17
9 7 6 5 3 3 5 6 5 4 5 6 7 6 6 7 6 4 3 3 4 5 5 6 6 7 6 5 3 2 2 3 4 6 7 8 9 9 9 9 8 6 6 6 6 5 4 2 2 2 1 2 4 5 6 8 8 8 7 7 6 6 7 8 8 9 9 10 12 13 14 15 16 17 17 17 18 18 18 17 16 16 15 15 14
8 6 5 3 2 4 4 5 3 3 4 6 7 7 5 5 5 4 3 3 3 3 4 4 5 6 6 5 3 2 2 1 1 4 7 8 9 9 10 9 9 9 9 9 8 5 3 3 3 3 3 5 6 6 6 7 7 7 7 6 6 6 7 8 9 10 12 13 14 15 16 17 17 17 18 18 18 19 19 18 16 15 15 15 14
7 5 4 1 3 3 3 4 3 3 4 5 6 6 6 6 5 4 3 4 4 4 3 4 5 6 5 4 3 3 5 5 4 3 5 8 10 11 10 10 11 10 9 7 5 3 4 5 5 5 6 7 7 6 6 6 5 6 6 6 5 6 7 9 10 12 13 14 14 15 15 16 17 17 17 17 18 18 18 18 17 15 15 15 14
6 4 2 1 3 4 2 1 1 3 5 5 4 5 7 8 8 8 8 8 8 7 5 4 5 6 5 3 3 4 6 7 6 4 2 4 8 10 9 9 8 6 3 3 5 6 7 7 7 8 8 8 7 6 5 5 6 7 7 7 6 7 9 10 11 11 12 13 13 13 13 13 14 15 15 16 16 16 16 17 17 16 15 14 14
6 4 2 2 2 3 4 3 2 3 4 4 4 4 6 7 8 8 8 8 8 7 5 5 5 5 3 2 3 4 6 8 7 5 2 1 4 5 5 5 4 4 5 7 9 9 9 9 9 8 8 8 7 6 6 7 8 9 9 8 8 8 8 9 10 11 11 12 12 13 13 13 13 14 14 14 14 14 14 15 16 16 16 15 14
8 6 4 5 2 2 5 5 3 2 3 4 4 5 7 7 8 8 7 6 6 6 5 4 3 4 4 3 4 5 7 8 8 4 2 6 8 8 8 8 9 9 10 12 12 11 10 9 8 7 7 6 6 7 8 9 10 10 10 9 8 7 7 7 8 9 10 10 10 10 12 13 13 13 13 13 13 13 13 14 15 16 17 16 14
10 10 6 7 3 2 3 4 3 3 4 5 6 7 7 7 8 7 5 5 5 5 3 2 3 6 7 6 5 7 7 5 2 5 9 11 12 12 12 12 13 13 13 13 12 10 9 8 7 6 6 5 6 8 9 9 9 9 8 7 7 6 5 5 5 7 7 8 8 8 9 10 11 11 11 11 12 12 12 12 14 15 16 16 15
11 10 5 5 2 1 1 3 3 3 5 6 7 8 8 7 6 4 3 4 3 2 1 3 4 6 8 8 7 6 2 5 10 12 12 12 12 12 12 12 12 12 11 10 9 8 7 7 6 7 6 6 7 8 9 9 9 8 7 6 5 5 4 3 3 5 6 7 7 7 7 7 8 9 9 9 10 10 11 12 12 13 14 15 15
8 2 6 5 1 1 3 3 3 5 6 7 8 8 8 6 4 2 3 4 3 1 1 3 5 7 8 7 6 3 4 11 13 12 11 11 10 10 10 10 10 9 9 8 7 7 6 6 6 7 8 9 9 9 8 7 7 7 6 5 5 4 3 2 2 3 5 6 6 6 6 6 6 7 8 8 8 8 10 12 12 12 13 13 14
2 6 9 5 4 3 2 2 5 6 7 7 7 8 7 6 4 1 3 4 3 1 2 2 5 9 7 3 2 2 5 11 12 11 10 10 9 8 7 7 7 7 7 6 6 6 5 5 6 7 8 8 8 7 6 5 5 5 5 5 4 3 3 3 2 3 4 5 5 6 6 5 5 6 6 6 6 6 8 10 11 11 13 13 12
1 5 6 2 1 2 3 4 5 7 8 7 6 7 7 5 2 1 3 4 3 1 2 2 3 7 7 4 2 2 4 9 11 10 10 9 9 9 8 6 5 4 4 5 5 5 4 4 4 5 5 5 5 5 4 4 4 4 4 4 4 3 4 4 4 3 4 4 4 5 5 4 4 5 5 5 5 5 6 8 9 10 11 12 12
1 2 2 2 2 1 4 5 3 5 7 7 6 8 7 5 2 0 2 4 4 4 4 3 1 5 8 6 5 7 9 10 10 10 10 9 9 9 9 8 5 3 2 3 4 4 4 4 4 3 2 2 2 3 3 3 3 3 3 3 3 3 3 3 3 3 3 3 4 5 5 5 5 5 5 5 5 5 7 8 8 8 9 11 12
3 1 2 2 2 3 4 5 4 3 4 6 7 7 7 5 3 1 1 3 5 5 5 3 2 3 7 5 6 9 8 8 7 7 7 7 6 7 9 9 7 4 2 2 3 4 4 4 4 2 1 1 1 1 2 2 3 3 3 3 3 3 3 2 2 2 2 2 4 5 5 5 5 6 7 7 6 6 7 8 8 7 7 9 12
4 3 4 4 4 4 4 6 5 4 3 5 7 6 6 6 5 3 2 4 6 5 5 4 3 2 5 2 5 6 4 3 3 2 2 3 3 4 7 9 8 5 2 1 3 4 5 4 3 3 2 2 2 2 3 4 4 4 4 4 4 3 2 2 1 2 2 4 5 5 5 5 6 7 8 9 9 7 7 7 7 6 6 7 10
3 3 4 4 4 5 6 7 6 4 3 3 5 6 6 6 5 4 3 4 8 7 5 4 4 2 2 1 3 4 2 0 2 3 4 4 3 3 6 8 7 5 3 1 2 4 4 4 3 3 3 3 4 4 5 5 5 5 5 4 4 3 2 1 2 3 4 6 7 6 5 5 7 8 9 10 9 7 6 6 6 5 5 5 7
Wind_Direction
229 225 220 215 216 217 217 216 215 217 210 196 190 188 187 187 185 184 184 184 186 187 182 181 184 183 180 181 182 182 179 181 187 190 190 192 193 198 202 200 198 198 197 195 194 194 195 195 200 205 206 205 201 200 203 202 200 202 204 204 207 211 206 200 209 210 198 207 218 218 215 217 227 236 230 223 221 219 218 221 222 222 222 222 221
232 231 229 222 218 216 216 213 209 214 212 196 188 188 186 184 185 185 184 186 189 189 186 186 187 185 182 182 181 179 179 181 183 182 185 191 194 194 197 196 196 198 197 194 192 194 197 198 199 202 205 204 201 200 200 200 201 202 203 203 207 210 207 209 217 220 214 207 208 215 219 222 228 235 232 226 223 226 231 235 236 234 233 233 231
240 236 232 225 218 213 214 213 207 208 212 203 191 189 187 185 185 187 189 190 191 192 191 189 187 184 179 178 180 180 180 183 184 181 181 190 195 193 194 196 197 197 196 197 199 200 201 203 202 203 204 203 202 200 200 202 204 203 201 204 210 209 211 224 230 226 224 219 212 216 221 222 225 231 236 231 227 231 237 238 235 232 234 239 240
250 251 249 233 220 214 214 217 210 205 211 211 199 192 190 188 189 191 189 186 184 184 186 186 182 177 172 173 177 179 179 181 183 182 180 185 190 189 189 192 194 195 196 198 201 202 202 204 205 205 204 203 201 201 202 203 202 202 204 208 212 211 219 238 240 229 226 224 222 224 224 224 226 225 226 228 224 221 223 224 220 225 235 245 246
246 256 260 236 216 211 212 216 212 206 209 211 203 195 193 192 193 190 183 177 174 172 173 174 174 174 174 174 174 174 175 177 178 179 177 177 180 183 186 187 187 190 194 195 199 202 202 204 206 204 203 204 202 199 200 200 199 201 206 211 213 213 223 236 231 224 224 225 229 231 227 224 225 225 223 225 223 217 216 223 229 239 247 249 250
232 233 237 222 212 209 208 210 210 208 209 209 202 197 197 198 194 185 178 173 171 170 170 172 174 177 178 176 173 172 174 174 174 174 173 173 174 175 178 180 179 182 186 188 193 197 199 201 201 199 201 202 198 196 195 195 199 204 206 207 209 212 219 222 217 218 222 227 233 237 235 226 222 225 227 228 231 232 233 236 240 247 250 250 251
227 218 208 201 204 207 207 208 209 209 209 209 205 201 202 202 189 178 174 170 169 171 173 175 178 183 184 183 182 178 171 168 168 169 168 169 170 170 172 173 172 172 175 180 186 190 192 195 196 195 200 199 193 193 195 195 202 208 204 201 205 215 222 218 214 217 221 226 230 237 244 233 224 229 235 235 238 242 246 249 249 252 255 258 262
222 214 207 202 201 204 206 207 209 209 208 207 209 207 205 198 184 174 171 170 172 175 175 177 182 187 191 190 184 173 165 164 167 166 163 162 166 168 170 172 169 166 166 169 175 181 183 186 192 195 197 193 189 192 198 201 208 210 204 203 209 223 227 219 214 217 220 225 229 231 239 238 232 233 237 238 240 243 248 253 256 259 262 267 271
226 213 209 209 208 207 206 206 207 209 207 204 204 204 202 192 181 175 173 173 177 178 178 179 179 179 182 182 176 170 167 170 173 170 167 167 168 170 171 171 171 169 165 160 160 162 164 174 189 197 195 190 189 193 197 200 208 210 208 211 218 226 225 214 209 212 217 223 227 227 232 238 238 237 237 240 245 251 256 258 263 267 269 269 270
247 231 216 213 214 214 208 205 206 206 204 201 198 198 197 190 182 179 178 179 180 178 177 179 176 172 173 174 173 173 174 176 178 176 178 181 179 179 179 176 175 173 167 161 158 155 158 171 185 193 195 195 194 194 192 187 191 202 211 222 231 232 222 209 203 206 214 220 222 224 231 236 238 241 245 250 255 259 260 261 265 269 269 265 264
271 255 236 225 222 223 214 207 205 202 200 198 195 193 193 189 186 184 180 179 180 177 174 178 179 179 178 175 174 175 177 180 180 177 180 184 181 177 178 177 176 176 171 166 164 162 163 170 177 188 198 199 196 193 191 191 191 191 201 217 223 215 207 202 198 202 211 215 216 219 226 231 235 240 246 252 255 257 260 263 266 267 266 264 264
303 282 268 251 234 230 222 210 204 200 198 196 192 190 189 188 188 187 183 182 184 181 180 182 183 183 184 182 178 177 177 181 183 181 178 178 176 172 170 169 170 172 171 169 170 170 169 170 173 182 191 190 187 187 190 198 204 201 197 200 193 183 184 188 189 193 200 205 206 206 208 214 221 227 232 238 244 249 254 257 258 259 259 260 262
330 310 303 291 251 235 228 217 207 200 196 194 191 188 188 189 189 188 186 186 185 182 182 184 182 181 183 183 182 181 179 179 185 189 186 182 179 176 172 169 169 172 172 174 179 178 177 176 177 180 179 174 172 178 186 198 209 212 210 208 204 198 194 192 190 192 197 202 205 207 208 212 217 219 222 228 235 240 245 249 254 258 260 261 264
353 338 327 313 277 245 231 229 223 208 197 193 191 189 190 192 191 188 189 188 184 180 180 180 179 179 180 182 182 182 182 181 185 192 195 194 191 186 182 177 174 175 178 181 183 182 183 187 186 184 182 183 185 187 194 202 210 215 216 216 215 214 215 215 213 211 213 215 218 222 225 230 235 238 240 242 246 250 253 256 259 262 266 268 269
24 14 358 335 300 248 223 226 229 213 199 195 193 191 192 194 191 185 186 187 183 179 178 177 179 179 180 184 186 184 184 183 183 187 194 197 194 192 192 187 180 180 183 187 188 188 189 192 193 190 187 190 193 198 204 210 215 219 219 218 218 219 221 225 228 230 232 233 236 239 241 244 248 251 255 256 258 261 262 264 266 268 270 272 272
43 41 34 22 2 215 203 210 217 208 197 194 195 193 191 193 192 184 182 184 182 179 178 178 180 182 182 187 192 191 188 184 182 183 186 188 188 190 190 187 182 182 185 188 189 190 190 192 194 194 193 196 198 201 206 209 214 219 220 219 221 223 223 226 229 233 237 240 243 246 248 251 253 257 261 263 265 267 268 270 272 274 276 277 276
45 47 47 44 41 67 158 182 197 198 188 186 191 193 189 187 186 183 182 182 179 178 178 177 179 182 183 186 192 195 190 185 186 187 187 185 185 186 186 182 180 181 183 184 186 187 187 189 191 193 196 200 202 205 207 209 210 215 218 220 224 228 231 234 237 240 244 246 249 251 254 256 258 261 264 267 270 271 273 274 275 276 278 280 280
45 46 49 51 49 50 68 112 143 159 163 166 178 187 184 177 175 178 182 182 178 176 176 176 175 177 179 180 183 187 185 182 187 193 194 192 190 188 184 180 177 177 179 179 182 184 184 185 188 192 196 200 203 206 211 214 216 219 223 227 230 235 239 242 245 249 252 254 256 259 262 264 266 267 268 270 271 272 273 274 274 275 277 279 280
48 49 50 53 55 54 53 62 89 123 140 141 149 165 172 170 169 172 177 178 175 171 172 173 171 169 169 169 171 175 176 175 180 189 193 195 196 194 191 187 182 179 178 179 181 184 185 186 189 193 197 201 205 208 212 216 219 223 227 232 236 240 243 245 247 250 252 255 257 259 262 263 265 266 267 268 269 270 271 272 273 274 275 277 279
49 53 54 56 57 57 56 54 60 82 105 111 115 134 152 160 163 166 169 171 169 165 166 168 166 163 163 165 167 169 168 166 169 177 183 189 196 198 196 194 192 187 184 186 188 190 191 192 192 195 199 203 207 211 216 221 225 229 232 236 240 244 246 249 251 253 255 256 257 258 259 261 262 264 265 266 267 268 269 270 271 273 274 277 280
46 49 55 61 64 64 63 61 58 61 71 84 94 107 124 137 145 149 155 157 155 153 156 160 161 159 159 163 167 167 164 162 162 164 170 179 191 198 199 198 200 199 197 197 198 198 199 198 198 201 206 211 217 222 226 230 233 236 240 243 246 249 252 253 255 257 258 260 262 263 263 263 263 264 265 266 266 267 268 269 272 275 278 281 283
47 47 48 53 62 68 71 72 73 72 68 69 76 86 99 113 121 126 134 141 142 142 145 151 156 156 154 157 162 165 165 163 162 161 161 164 175 189 195 193 195 201 203 201 201 202 203 204 207 212 218 225 231 235 238 240 243 246 250 252 254 255 256 257 259 261 264 266 268 270 270 269 268 268 269 269 269 269 270 272 272 273 275 278 282
45 46 46 46 49 57 69 76 80 84 87 87 83 83 90 98 103 108 116 125 129 130 132 139 146 146 146 149 155 162 165 163 163 166 166 163 164 174 182 183 183 190 197 198 199 201 204 207 213 220 229 237 243 246 249 251 253 255 256 256 257 258 259 262 266 268 271 273 273 274 275 276 275 275 274 274 275 273 272 273 274 272 272 272 275
46 46 46 45 46 47 54 66 80 90 95 99 103 102 100 100 99 99 103 109 113 114 113 116 124 129 133 133 135 142 148 144 149 163 169 167 166 171 178 181 183 188 194 196 198 201 206 213 221 229 236 241 245 249 252 253 253 253 253 255 256 258 262 265 269 272 274 276 277 276 278 280 281 282 283 283 284 284 282 281 280 280 279 279 278
46 47 46 45 44 45 47 52 62 78 93 103 108 109 109 111 110 105 102 99 98 97 94 93 98 109 118 118 114 113 109 99 100 122 141 144 148 164 177 186 193 201 206 209 212 216 223 227 228 228 231 233 237 242 246 247 247 245 246 250 254 260 265 270 274 279 281 282 284 285 286 288 290 292 294 294 295 295 294 291 288 286 285 284 282
46 48 48 47 44 42 43 46 49 54 62 78 103 115 118 121 123 121 115 107 100 95 91 89 91 101 109 111 110 107 99 90 90 98 108 114 117 134 161 171 183 195 203 208 211 213 215 215 210 209 212 216 220 226 227 227 231 235 240 247 254 260 266 271 276 280 283 285 287 289 290 292 293 295 297 299 300 300 300 298 296 293 292 290 288
48 49 51 51 49 45 42 42 42 44 48 53 67 89 102 110 122 129 127 117 108 99 90 85 85 91 96 97 95 91 84 83 88 89 86 89 105 139 174 159 157 162 167 173 178 180 181 184 185 192 202 204 205 209 210 211 219 228 238 247 255 261 268 275 280 283 285 287 289 290 291 293 295 298 300 302 303 302 302 301 300 300 299 298 296
46 48 51 53 54 51 45 42 41 42 44 46 50 59 67 73 80 86 86 83 79 73 68 66 65 68 75 80 79 75 73 73 76 82 85 94 117 142 162 168 161 158 158 161 165 167 171 175 178 183 190 193 195 198 202 210 221 231 242 253 263 270 275 279 281 283 285 286 288 290 293 295 298 301 303 304 304 304 304 304 305 306 306 305 303
39 42 47 50 53 54 49 43 43 45 47 47 50 54 57 57 57 61 64 66 66 66 68 73 71 65 65 70 75 77 76 70 67 80 99 121 140 151 161 164 162 163 164 166 168 170 171 175 179 184 189 194 199 204 212 222 232 242 251 258 262 267 270 273 277 280 283 286 290 293 297 301 303 306 308 309 311 312 313 314 315 315 316 317 318
23 29 40 46 48 52 52 46 46 52 53 51 52 59 67 70 72 76 81 84 86 89 92 93 91 82 72 77 98 108 94 88 101 124 138 146 152 159 164 166 166 169 172 173 174 176 178 182 188 194 201 207 213 219 224 231 238 245 251 256 263 272 280 285 289 291 293 297 300 304 309 313 316 320 323 325 327 327 327 327 326 326 327 332 337
23 30 42 45 43 47 50 49 48 54 57 53 53 60 69 77 82 84 87 90 92 98 112 134 116 100 106 159 187 181 147 131 136 143 145 147 154 159 162 162 165 169 175 177 176 176 179 186 190 192 198 206 210 214 223 232 243 251 260 271 282 291 295 297 303 313 320 326 332 338 341 340 339 340 339 338 338 336 334 333 331 331 336 341 344
39 47 56 54 50 49 49 48 49 55 56 48 48 54 62 72 80 82 81 80 81 87 99 115 125 131 139 148 156 157 149 143 145 147 144 146 155 159 159 161 165 169 175 182 180 170 167 173 174 171 176 194 205 223 253 273 278 282 289 292 291 297 315 346 11 19 13 8 4 358 353 348 344 342 339 338 337 335 333 334 335 335 340 348 350
38 48 54 53 51 49 45 42 45 57 66 56 45 43 47 62 78 84 84 81 78 80 90 103 116 126 133 137 142 144 143 144 147 147 145 151 160 163 161 163 167 169 175 188 190 172 166 174 176 162 251 290 295 287 278 279 286 306 340 24 60 61 54 46 40 29 16 11 4 355 350 348 345 342 340 338 338 338 339 344 352 355 356 360 6
25 37 36 31 29 32 35 34 32 37 55 62 60 61 65 71 78 87 95 92 82 77 79 84 95 109 120 130 138 141 143 149 153 153 153 159 168 172 172 173 175 176 184 201 211 201 196 215 246 275 279 285 292 232 226 246 53 66 72 75 72 64 58 51 37 21 13 8 2 357 355 352 348 348 350 351 353 356 357 0 7 13 15 13 13
350 11 20 18 14 16 24 29 25 21 34 50 58 70 91 101 100 100 100 89 77 72 74 73 72 73 80 109 134 139 143 153 160 161 163 170 181 189 194 194 191 190 196 212 222 224 233 256 258 237 251 273 303 82 95 88 86 87 85 79 73 66 57 44 30 22 17 13 9 8 8 7 6 8 11 14 15 15 13 11 10 13 17 18 15
335 335 355 5 11 22 36 41 36 24 21 34 46 65 88 104 127 146 116 83 71 70 72 67 56 47 42 46 83 119 135 155 167 168 165 171 184 198 208 210 208 208 214 227 240 264 287 289 261 241 252 273 73 87 90 89 88 89 85 78 72 63 51 42 36 32 29 27 26 25 25 27 28 27 25 25 25 22 19 17 13 10 11 11 10
337 325 338 355 24 66 70 62 46 19 7 15 22 39 76 102 124 146 136 91 64 59 60 50 33 24 23 24 33 69 116 150 175 185 184 182 190 208 223 230 232 234 242 255 272 285 288 267 235 226 177 104 101 99 97 95 92 89 84 77 69 60 52 47 43 41 40 40 40 41 40 37 34 32 29 28 27 25 23 21 18 15 13 9 5
342 330 339 8 106 103 74 61 44 2 349 0 7 17 46 79 94 105 102 68 38 33 39 30 11 2 5 12 7 320 297 312 258 222 220 219 219 225 232 237 244 253 259 267 274 271 236 193 187 169 122 104 102 101 99 96 92 89 86 80 70 63 58 54 54 55 55 54 51 48 45 41 36 34 33 31 29 28 26 24 22 20 16 11 6
346 339 335 345 138 121 76 63 53 10 356 358 357 354 356 4 8 5 3 360 347 331 333 346 346 347 352 350 324 296 295 302 309 288 248 235 231 232 236 244 253 261 263 257 242 203 169 161 152 134 115 105 100 97 95 93 89 89 92 91 81 74 71 69 69 68 66 61 56 52 48 46 43 40 37 34 32 30 27 27 26 23 17 13 10
349 350 326 229 160 155 145 97 30 341 338 340 339 337 337 338 338 336 335 334 325 308 300 311 323 335 343 323 286 292 296 297 308 329 323 245 230 230 236 243 248 251 235 173 153 144 139 135 129 120 111 103 97 90 86 87 87 87 93 99 98 92 86 80 74 70 62 55 51 49 47 47 48 48 45 41 37 34 32 32 31 26 20 15 11
336 336 239 202 172 183 204 220 240 285 320 339 345 339 333 327 322 318 316 314 308 296 290 301 316 327 330 297 279 292 295 300 314 333 352 179 188 191 189 188 184 162 131 124 123 121 118 116 114 112 108 102 97 90 86 86 84 81 82 87 88 85 79 68 63 63 59 49 43 40 37 37 42 48 50 46 40 37 37 37 36 32 25 21 19
330 327 248 220 232 237 222 222 230 259 314 340 339 327 320 311 302 298 298 298 291 279 277 295 327 342 332 300 281 286 293 303 320 341 105 124 119 115 116 118 119 118 117 115 113 109 108 107 105 105 106 104 102 100 96 91 83 74 70 71 72 69 61 48 41 44 49 47 40 35 34 35 37 41 46 46 41 38 38 38 37 35 30 27 27
326 325 276 229 239 275 229 216 232 279 321 335 336 335 328 311 296 289 290 283 266 254 263 320 1 353 341 328 310 306 307 315 21 95 111 112 107 103 102 103 105 106 107 107 105 101 100 99 98 99 103 107 111 110 104 97 87 74 65 65 68 68 64 47 24 19 26 34 34 30 31 33 32 32 36 38 35 33 36 37 34 33 30 29 28
321 319 271 209 230 321 198 197 238 290 324 339 346 351 344 325 308 290 263 240 220 208 358 18 10 353 343 335 324 318 332 108 105 103 106 107 105 105 104 101 102 103 102 103 102 99 97 99 101 99 97 101 108 110 102 92 84 76 68 67 72 75 77 62 14 3 12 21 26 26 25 27 26 23 22 24 23 26 31 33 31 29 27 25 22
334 320 157 148 101 72 145 175 267 303 323 337 349 356 351 339 328 293 230 205 180 160 351 4 4 349 335 326 323 315 153 134 115 100 101 103 100 103 108 107 107 107 105 106 109 107 103 105 106 101 96 96 101 105 99 88 81 76 70 69 74 78 80 74 8 4 15 21 24 25 26 26 23 16 11 10 14 20 24 25 24 25 24 21 18
36 146 147 115 54 72 116 263 283 297 312 326 344 357 356 351 352 330 201 192 187 243 292 323 348 348 344 340 352 11 143 144 129 108 99 96 89 86 90 96 102 106 105 107 112 111 104 102 100 99 100 101 100 99 94 85 81 79 73 72 72 74 80 87 70 40 34 32 27 27 29 27 18 10 9 10 12 19 24 22 18 19 22 22 19
86 163 181 208 34 60 19 319 284 282 294 310 338 356 358 357 8 125 186 195 203 242 262 266 329 1 18 53 85 51 104 130 126 110 96 90 82 74 67 61 71 90 98 104 109 109 104 97 92 93 100 102 96 89 82 78 83 87 82 77 76 78 82 84 76 58 46 37 25 21 26 23 12 9 18 25 22 18 19 15 10 14 25 30 25
7 123 176 233 241 303 347 345 316 286 284 292 324 350 356 359 7 131 196 201 205 226 251 243 226 23 23 43 87 94 95 107 110 103 95 87 74 61 51 44 41 53 84 109 116 114 108 101 97 101 111 106 87 79 76 81 96 105 97 88 87 85 84 80 72 65 58 39 19 15 16 15 9 5 7 13 17 12 9 10 13 19 29 34 28
267 331 338 297 247 258 308 331 338 322 291 286 306 334 352 359 356 336 243 224 221 239 257 233 168 17 2 29 100 107 99 97 97 91 87 80 62 42 30 23 21 25 50 124 130 120 108 102 104 116 136 140 116 109 113 119 124 122 117 114 112 106 100 93 80 70 53 13 4 6 6 3 0 354 346 343 346 350 354 4 16 24 26 26 22
234 292 307 284 240 235 273 298 310 324 317 293 296 318 350 0 356 344 294 248 233 241 256 231 193 354 353 32 125 123 102 87 85 57 28 24 23 16 8 4 5 11 15 116 136 120 108 105 109 112 120 136 146 144 138 135 133 130 125 121 117 112 110 102 55 18 356 347 349 352 353 353 352 344 333 327 325 324 328 342 359 12 20 20 16
228 308 316 280 241 238 255 272 283 297 314 301 293 305 336 354 356 354 326 257 231 233 251 245 211 212 325 335 154 152 147 291 277 266 273 286 298 329 351 358 4 8 360 348 138 126 117 115 114 110 114 128 139 141 138 134 130 127 122 116 110 104 96 54 359 349 351 351 349 345 340 341 344 341 333 328 326 322 317 321 337 360 21 26 24
Height
1494 1494 1494 1495 1497 1498 1499 1501 1503 1504 1505 1506 1507 1508 1510 1512 1514 1515 1516 1517 1518 1519 1520 1521 1522 1522 1523 1524 1525 1526 1526 1527 1527 1528 1529 1530 1531 1532 1533 1534 1535 1536 1537 1537 1538 1540 1541 1543 1545 1547 1548 1550 1551 1553 1555 1556 1558 1560 1561 1562 1564 1565 1567 1567 1568 1569 1569 1571 1572 1574 1574 1575 1576 1576 1577 1577 1578 1578 1579 1579 1580 1580 1580 1580 1581
1492 1493 1493 1494 1495 1497 1499 1499 1501 1504 1506 1506 1507 1508 1510 1512 1514 1515 1516 1517 1518 1519 1520 1521 1521 1522 1523 1523 1524 1525 1526 1526 1527 1528 1528 1529 1530 1531 1532 1533 1534 1535 1536 1537 1538 1539 1540 1542 1544 1546 1547 1549 1550 1552 1554 1555 1557 1559 1560 1562 1563 1565 1566 1567 1568 1569 1570 1570 1571 1573 1573 1574 1575 1575 1576 1576 1577 1578 1578 1578 1579 1579 1579 1579 1580
1492 1492 1492 1492 1493 1496 1499 1499 1499 1503 1506 1507 1508 1509 1510 1511 1513 1515 1516 1517 1519 1520 1520 1521 1521 1522 1522 1523 1523 1524 1525 1526 1527 1527 1528 1529 1530 1531 1532 1533 1534 1535 1535 1537 1538 1539 1540 1541 1543 1545 1546 1548 1549 1551 1553 1554 1556 1558 1559 1561 1563 1564 1566 1567 1567 1568 1569 1570 1570 1571 1572 1573 1574 1574 1575 1575 1576 1577 1577 1578 1578 1578 1578 1578 1578
1491 1490 1490 1490 1491 1495 1499 1501 1500 1502 1505 1508 1508 1509 1510 1511 1513 1514 1515 1516 1518 1519 1520 1521 1522 1522 1522 1522 1522 1523 1524 1525 1526 1527 1528 1529 1530 1530 1531 1532 1533 1534 1536 1537 1538 1539 1540 1541 1543 1544 1546 1547 1548 1550 1551 1553 1555 1557 1559 1561 1562 1564 1565 1565 1566 1567 1568 1569 1569 1570 1570 1572 1573 1574 1574 1575 1575 1576 1577 1577 1577 1577 1577 1577 1577
1489 1488 1488 1487 1488 1492 1498 1501 1502 1502 1505 1509 1509 1509 1511 1512 1513 1514 1515 1515 1516 1518 1519 1521 1522 1522 1522 1522 1522 1522 1523 1524 1525 1526 1527 1528 1529 1530 1531 1532 1533 1534 1536 1537 1538 1539 1540 1541 1542 1543 1544 1546 1547 1549 1550 1552 1554 1556 1558 1560 1561 1563 1564 1564 1564 1565 1566 1568 1568 1569 1569 1571 1572 1573 1573 1574 1574 1575 1575 1576 1576 1576 1576 1576 1576
1487 1486 1486 1486 1488 1491 1494 1498 1500 1502 1505 1509 1511 1510 1511 1513 1514 1514 1515 1515 1516 1517 1518 1520 1521 1522 1522 1522 1522 1522 1523 1524 1525 1526 1527 1528 1529 1530 1531 1532 1533 1535 1536 1537 1538 1539 1540 1541 1542 1543 1544 1545 1546 1548 1549 1551 1553 1555 1556 1558 1560 1561 1562 1562 1563 1564 1565 1567 1567 1568 1569 1570 1571 1572 1572 1573 1573 1573 1574 1574 1575 1575 1575 1575 1575
1486 1485 1485 1486 1487 1490 1492 1495 1498 1500 1503 1507 1511 1513 1513 1514 1515 1514 1515 1515 1515 1516 1517 1519 1520 1521 1522 1522 1522 1522 1522 1523 1525 1526 1527 1528 1529 1530 1531 1532 1533 1535 1536 1537 1538 1539 1540 1541 1542 1542 1543 1544 1545 1547 1549 1550 1552 1553 1555 1557 1558 1560 1561 1561 1562 1563 1565 1566 1566 1567 1568 1568 1569 1570 1571 1572 1572 1572 1573 1573 1573 1573 1573 1573 1573
1487 1486 1486 1486 1486 1487 1490 1493 1495 1498 1500 1504 1510 1513 1513 1514 1514 1515 1515 1516 1516 1516 1516 1518 1519 1521 1522 1522 1522 1523 1523 1524 1525 1525 1526 1527 1529 1530 1531 1532 1533 1534 1536 1537 1538 1538 1539 1540 1541 1542 1543 1544 1545 1547 1548 1550 1551 1552 1554 1555 1557 1558 1559 1560 1561 1562 1563 1564 1565 1566 1567 1567 1568 1569 1570 1570 1570 1570 1571 1571 1571 1571 1571 1571 1571
1486 1486 1486 1486 1487 1487 1489 1491 1493 1496 1498 1501 1506 1510 1512 1512 1513 1514 1514 1515 1515 1515 1516 1517 1518 1520 1521 1522 1522 1523 1523 1524 1525 1526 1527 1527 1528 1529 1530 1532 1533 1534 1536 1537 1537 1538 1539 1539 1540 1541 1542 1543 1545 1546 1548 1549 1550 1552 1553 1554 1556 1557 1558 1559 1560 1561 1562 1563 1564 1565 1566 1566 1567 1567 1568 1568 1568 1568 1569 1569 1569 1569 1569 1569 1568
1485 1484 1485 1486 1487 1488 1490 1492 1493 1495 1497 1499 1502 1506 1510 1512 1512 1512 1513 1513 1514 1514 1515 1517 1518 1519 1520 1521 1522 1522 1523 1524 1525 1526 1527 1527 1528 1529 1530 1531 1533 1534 1535 1536 1537 1538 1538 1539 1539 1540 1541 1542 1543 1545 1547 1549 1550 1551 1553 1554 1554 1555 1556 1558 1559 1560 1561 1561 1562 1563 1564 1564 1565 1565 1565 1565 1566 1567 1567 1567 1567 1567 1568 1567 1566
1484 1483 1484 1484 1486 1487 1489 1490 1492 1494 1497 1499 1501 1504 1508 1511 1511 1511 1511 1511 1512 1513 1514 1516 1517 1519 1520 1520 1521 1522 1523 1524 1525 1526 1527 1527 1528 1529 1530 1531 1532 1534 1535 1536 1537 1537 1538 1538 1539 1539 1540 1540 1541 1543 1546 1548 1549 1551 1552 1553 1553 1554 1556 1557 1558 1559 1560 1561 1561 1562 1563 1563 1564 1564 1564 1564 1565 1565 1565 1565 1565 1565 1565 1564 1564
1484 1483 1482 1483 1485 1486 1487 1488 1490 1493 1495 1497 1499 1502 1505 1507 1509 1510 1509 1509 1510 1512 1513 1515 1516 1518 1519 1520 1520 1521 1522 1523 1524 1525 1526 1527 1529 1529 1530 1531 1532 1534 1535 1536 1537 1537 1538 1538 1539 1539 1540 1540 1541 1542 1544 1546 1548 1549 1551 1552 1553 1554 1555 1556 1557 1558 1559 1560 1561 1561 1562 1563 1563 1563 1563 1563 1563 1564 1563 1563 1563 1563 1563 1562 1562
1483 1482 1481 1482 1483 1483 1484 1486 1488 1491 1492 1494 1496 1499 1502 1503 1505 1507 1507 1507 1509 1510 1512 1513 1515 1517 1518 1519 1520 1520 1521 1522 1523 1524 1526 1527 1528 1529 1530 1531 1532 1534 1535 1535 1536 1537 1538 1539 1539 1539 1540 1541 1542 1542 1543 1545 1547 1548 1550 1551 1552 1554 1555 1556 1556 1557 1558 1559 1559 1560 1560 1561 1561 1561 1561 1561 1562 1562 1561 1561 1561 1561 1560 1560 1559
1483 1481 1480 1480 1481 1481 1483 1485 1486 1487 1489 1491 1493 1495 1499 1501 1502 1503 1505 1506 1507 1509 1510 1512 1514 1516 1518 1518 1519 1519 1520 1521 1522 1524 1525 1526 1527 1528 1529 1531 1532 1533 1534 1535 1536 1537 1538 1538 1539 1539 1540 1541 1542 1543 1543 1545 1546 1547 1548 1550 1551 1553 1554 1555 1555 1556 1557 1557 1557 1558 1558 1558 1559 1559 1559 1559 1559 1559 1559 1559 1558 1558 1557 1556 1556
1484 1481 1480 1480 1480 1480 1482 1483 1484 1485 1487 1489 1490 1492 1494 1497 1499 1500 1502 1504 1506 1507 1509 1511 1513 1515 1517 1518 1518 1519 1520 1521 1522 1522 1523 1524 1526 1527 1528 1529 1530 1532 1533 1534 1535 1536 1537 1538 1538 1539 1540 1541 1542 1543 1543 1544 1545 1546 1547 1549 1550 1551 1552 1553 1554 1554 1555 1555 1555 1556 1556 1556 1556 1556 1556 1557 1556 1556 1556 1555 1555 1554 1553 1552 1552
1486 1483 1482 1481 1480 1481 1481 1482 1482 1483 1484 1486 1489 1490 1490 1492 1496 1499 1501 1503 1505 1506 1508 1510 1512 1514 1516 1517 1518 1518 1519 1520 1521 1522 1522 1523 1524 1525 1527 1528 1529 1530 1531 1533 1534 1535 1536 1537 1538 1539 1540 1541 1542 1542 1543 1544 1544 1545 1546 1547 1548 1549 1550 1551 1552 1552 1553 1553 1553 1554 1554 1554 1555 1555 1554 1554 1554 1553 1553 1553 1553 1551 1549 1548 1548
1490 1488 1485 1484 1484 1483 1482 1481 1481 1481 1482 1483 1486 1488 1488 1489 1494 1498 1501 1502 1504 1506 1507 1509 1511 1513 1514 1515 1516 1517 1518 1519 1521 1521 1521 1522 1524 1525 1525 1527 1528 1529 1530 1531 1533 1534 1535 1537 1538 1539 1540 1540 1541 1542 1542 1543 1544 1545 1545 1546 1547 1548 1548 1549 1550 1550 1551 1551 1552 1552 1552 1552 1553 1553 1552 1552 1551 1550 1550 1549 1549 1548 1546 1545 1543
1495 1493 1491 1489 1489 1488 1487 1484 1481 1480 1481 1483 1484 1485 1486 1488 1492 1497 1500 1502 1504 1505 1506 1507 1509 1511 1513 1514 1515 1516 1517 1518 1520 1521 1521 1522 1523 1524 1525 1526 1527 1528 1529 1530 1531 1533 1534 1536 1537 1538 1539 1540 1540 1541 1542 1542 1543 1544 1544 1545 1546 1546 1547 1547 1548 1548 1549 1549 1549 1549 1549 1549 1549 1549 1549 1548 1547 1547 1546 1546 1545 1544 1543 1542 1540
1499 1498 1496 1495 1493 1492 1492 1490 1487 1483 1483 1485 1485 1485 1485 1488 1492 1496 1499 1502 1504 1504 1505 1506 1507 1510 1511 1512 1513 1515 1516 1517 1519 1520 1521 1522 1523 1524 1525 1526 1527 1528 1528 1529 1530 1532 1533 1535 1536 1537 1538 1539 1539 1540 1541 1541 1542 1543 1543 1544 1544 1545 1545 1546 1546 1546 1547 1547 1547 1547 1547 1547 1547 1547 1546 1546 1545 1544 1543 1542 1541 1540 1539 1538 1536
1504 1502 1501 1499 1497 1495 1494 1494 1493 1490 1489 1489 1489 1488 1487 1489 1493 1496 1498 1502 1503 1503 1504 1505 1506 1508 1510 1511 1512 1514 1515 1517 1518 1520 1521 1522 1523 1523 1524 1525 1526 1527 1528 1529 1530 1531 1532 1534 1535 1536 1537 1538 1538 1539 1539 1540 1541 1541 1542 1543 1543 1543 1544 1544 1544 1544 1544 1545 1545 1545 1545 1545 1544 1544 1543 1543 1542 1541 1540 1539 1538 1537 1535 1534 1533
1507 1506 1504 1502 1500 1498 1497 1496 1496 1496 1495 1495 1495 1494 1491 1491 1495 1498 1499 1503 1503 1503 1503 1504 1505 1507 1509 1510 1512 1513 1515 1516 1517 1519 1520 1522 1523 1523 1523 1524 1524 1525 1526 1528 1529 1530 1531 1533 1534 1535 1536 1537 1537 1538 1538 1539 1539 1540 1540 1541 1541 1541 1542 1541 1541 1541 1541 1541 1541 1541 1542 1541 1541 1540 1540 1539 1538 1537 1537 1536 1535 1534 1533 1531 1530
1510 1508 1507 1505 1503 1502 1500 1499 1498 1499 1499 1500 1501 1499 1496 1494 1497 1499 1501 1504 1504 1503 1504 1505 1505 1507 1509 1510 1512 1514 1515 1516 1517 1518 1519 1521 1523 1523 1523 1523 1523 1524 1525 1526 1527 1529 1530 1531 1533 1534 1535 1535 1536 1536 1537 1537 1538 1538 1538 1539 1539 1539 1539 1538 1538 1538 1538 1539 1538 1538 1538 1537 1537 1537 1536 1535 1535 1535 1534 1533 1533 1532 1531 1529 1527
1512 1511 1509 1508 1506 1505 1504 1503 1502 1502 1502 1502 1503 1504 1502 1500 1500 1502 1503 1505 1504 1505 1506 1507 1507 1508 1509 1511 1512 1515 1517 1518 1518 1518 1519 1520 1522 1523 1523 1522 1522 1523 1524 1525 1526 1527 1529 1530 1531 1532 1532 1533 1534 1534 1535 1535 1536 1536 1536 1537 1537 1537 1536 1536 1536 1536 1536 1536 1536 1536 1535 1534 1534 1534 1533 1533 1532 1532 1531 1531 1530 1529 1528 1527 1526
1515 1513 1511 1510 1509 1508 1507 1506 1505 1505 1505 1505 1504 1505 1506 1505 1504 1505 1505 1505 1506 1507 1508 1508 1508 1509 1510 1511 1513 1515 1518 1519 1519 1518 1519 1520 1522 1522 1522 1522 1522 1522 1523 1524 1525 1526 1527 1528 1529 1530 1531 1531 1532 1532 1533 1533 1534 1534 1535 1535 1535 1535 1535 1535 1535 1535 1535 1534 1534 1534 1533 1533 1532 1531 1531 1530 1530 1529 1529 1528 1527 1527 1525 1524 1524
1517 1515 1514 1513 1512 1511 1510 1509 1508 1508 1508 1507 1507 1507 1507 1507 1507 1507 1508 1508 1509 1509 1509 1510 1510 1511 1511 1512 1514 1516 1519 1520 1520 1519 1519 1521 1522 1523 1522 1522 1522 1522 1522 1523 1524 1525 1526 1527 1528 1529 1530 1530 1530 1530 1531 1532 1532 1533 1533 1534 1534 1534 1534 1534 1534 1534 1533 1533 1532 1532 1531 1531 1530 1529 1529 1528 1527 1526 1526 1525 1524 1524 1522 1521 1520
1519 1518 1516 1515 1514 1513 1512 1511 1510 1510 1509 1509 1509 1509 1509 1509 1509 1509 1510 1510 1511 1510 1510 1511 1512 1512 1513 1514 1515 1517 1519 1520 1520 1520 1521 1522 1522 1523 1524 1524 1523 1523 1523 1523 1524 1525 1526 1527 1528 1529 1529 1529 1530 1530 1531 1531 1532 1532 1533 1533 1533 1533 1533 1533 1533 1532 1532 1531 1531 1530 1530 1529 1528 1528 1527 1526 1525 1524 1523 1521 1521 1520 1519 1517 1515
1521 1520 1518 1517 1517 1516 1515 1514 1512 1512 1511 1511 1510 1510 1510 1510 1511 1511 1511 1512 1512 1512 1512 1513 1513 1514 1515 1515 1517 1518 1519 1519 1519 1520 1521 1522 1522 1524 1525 1526 1526 1525 1524 1524 1524 1525 1526 1527 1528 1529 1529 1529 1530 1530 1531 1531 1532 1532 1533 1533 1533 1532 1532 1532 1531 1531 1531 1530 1529 1529 1528 1527 1527 1526 1525 1524 1523 1522 1520 1518 1517 1516 1515 1513 1511
1524 1522 1520 1519 1519 1518 1517 1516 1515 1514 1513 1512 1512 1512 1512 1512 1512 1512 1513 1513 1513 1513 1514 1514 1515 1516 1516 1517 1518 1519 1519 1520 1520 1521 1522 1523 1524 1525 1527 1527 1527 1527 1526 1526 1526 1527 1527 1528 1528 1529 1529 1529 1530 1530 1531 1532 1532 1532 1532 1532 1532 1531 1531 1530 1530 1529 1529 1528 1527 1527 1526 1526 1525 1524 1523 1522 1521 1520 1518 1516 1515 1513 1511 1510 1508
1525 1524 1522 1521 1520 1520 1520 1519 1518 1517 1516 1515 1514 1514 1513 1513 1513 1514 1514 1515 1515 1516 1516 1516 1516 1517 1517 1518 1519 1520 1520 1521 1522 1522 1523 1524 1526 1527 1528 1528 1528 1528 1527 1527 1527 1528 1528 1529 1529 1529 1530 1530 1530 1531 1531 1531 1532 1532 1532 1531 1530 1530 1529 1529 1528 1528 1527 1526 1526 1525 1525 1524 1523 1522 1521 1521 1519 1518 1516 1514 1512 1510 1508 1507 1505
1527 1525 1524 1523 1522 1522 1521 1521 1521 1520 1519 1518 1517 1517 1516 1516 1516 1516 1516 1517 1518 1518 1518 1518 1518 1518 1519 1520 1520 1521 1522 1522 1522 1523 1524 1525 1527 1528 1528 1529 1528 1528 1528 1527 1528 1528 1528 1529 1529 1530 1530 1530 1531 1531 1531 1531 1531 1531 1530 1530 1529 1529 1528 1527 1527 1526 1525 1525 1524 1524 1523 1523 1522 1521 1520 1518 1517 1515 1513 1511 1509 1507 1506 1504 1502
1528 1527 1527 1525 1525 1524 1524 1523 1523 1522 1522 1521 1521 1520 1519 1519 1519 1519 1519 1519 1519 1520 1520 1520 1520 1520 1520 1521 1522 1522 1522 1523 1523 1524 1525 1526 1527 1527 1528 1528 1528 1528 1528 1528 1528 1528 1529 1529 1529 1530 1530 1530 1530 1530 1530 1530 1529 1529 1529 1528 1528 1527 1527 1526 1525 1525 1524 1524 1523 1523 1522 1521 1520 1519 1517 1516 1514 1513 1511 1510 1508 1506 1504 1502 1501
1530 1529 1529 1528 1527 1526 1526 1525 1525 1524 1524 1524 1523 1523 1522 1521 1521 1521 1521 1521 1521 1521 1521 1521 1521 1521 1521 1522 1522 1522 1523 1524 1524 1525 1525 1526 1526 1527 1528 1528 1528 1528 1528 1528 1528 1528 1529 1529 1529 1529 1529 1529 1529 1529 1529 1529 1528 1528 1527 1527 1527 1526 1526 1525 1524 1524 1524 1523 1522 1522 1520 1519 1518 1516 1515 1514 1513 1511 1510 1508 1507 1505 1503 1502 1500
1532 1531 1530 1530 1529 1528 1528 1527 1527 1526 1526 1525 1525 1525 1524 1524 1523 1523 1523 1523 1523 1523 1523 1522 1522 1522 1522 1522 1522 1523 1523 1524 1524 1525 1526 1526 1526 1527 1528 1528 1528 1528 1528 1528 1528 1528 1528 1528 1529 1529 1529 1528 1528 1528 1528 1527 1527 1527 1526 1526 1525 1525 1525 1524 1524 1524 1523 1522 1521 1520 1519 1518 1516 1515 1514 1513 1511 1510 1508 1507 1505 1504 1502 1501 1500
1533 1532 1532 1531 1531 1530 1529 1529 1528 1527 1527 1526 1526 1526 1526 1526 1525 1525 1524 1524 1524 1524 1524 1524 1524 1523 1523 1523 1523 1523 1523 1524 1524 1525 1526 1526 1526 1527 1528 1528 1528 1528 1528 1529 1528 1528 1528 1528 1528 1528 1528 1528 1527 1527 1527 1526 1526 1526 1525 1525 1525 1525 1525 1524 1524 1523 1522 1521 1520 1519 1518 1516 1515 1514 1513 1512 1510 1509 1507 1506 1504 1503 1502 1500 1499
1534 1533 1533 1532 1532 1531 1531 1530 1529 1528 1528 1527 1527 1527 1526 1527 1527 1526 1526 1526 1525 1525 1525 1525 1525 1525 1524 1524 1523 1523 1523 1524 1524 1525 1526 1526 1526 1527 1527 1528 1528 1528 1528 1528 1528 1528 1528 1528 1528 1528 1527 1527 1526 1526 1526 1525 1525 1525 1525 1525 1525 1525 1525 1524 1523 1522 1521 1520 1519 1518 1517 1516 1515 1514 1512 1511 1509 1508 1506 1505 1504 1503 1502 1501 1499
1535 1534 1533 1533 1532 1532 1531 1531 1530 1529 1528 1528 1528 1528 1527 1527 1527 1527 1527 1526 1526 1526 1525 1525 1526 1525 1525 1525 1524 1524 1524 1524 1524 1525 1526 1526 1526 1527 1527 1527 1527 1528 1528 1528 1527 1527 1527 1527 1527 1527 1527 1526 1526 1525 1525 1526 1526 1526 1526 1526 1525 1524 1524 1523 1522 1522 1521 1520 1519 1518 1517 1517 1515 1514 1512 1510 1509 1507 1506 1505 1504 1503 1502 1501 1500
1535 1534 1534 1533 1533 1532 1532 1532 1531 1530 1529 1529 1529 1528 1528 1528 1528 1528 1527 1527 1527 1526 1526 1526 1526 1525 1525 1525 1525 1525 1525 1525 1525 1525 1526 1526 1526 1526 1526 1526 1526 1526 1527 1526 1526 1526 1526 1526 1526 1526 1526 1525 1525 1525 1526 1526 1526 1526 1526 1525 1525 1524 1524 1523 1522 1522 1521 1520 1520 1519 1518 1516 1515 1513 1511 1510 1509 1508 1507 1506 1505 1504 1503 1503 1502
1535 1535 1534 1534 1533 1533 1532 1532 1532 1531 1531 1530 1530 1529 1529 1529 1529 1529 1528 1528 1528 1527 1527 1527 1526 1526 1525 1525 1525 1525 1525 1525 1525 1525 1525 1525 1525 1525 1525 1525 1525 1525 1525 1525 1525 1525 1525 1525 1525 1525 1525 1525 1525 1526 1526 1526 1526 1525 1525 1525 1525 1524 1524 1523 1523 1522 1522 1521 1521 1519 1518 1516 1514 1513 1512 1511 1510 1510 1508 1507 1506 1505 1505 1504 1502
1536 1535 1534 1534 1534 1533 1533 1533 1533 1532 1532 1531 1531 1530 1530 1530 1530 1529 1529 1528 1528 1527 1527 1527 1526 1526 1525 1525 1525 1524 1524 1524 1524 1524 1524 1523 1523 1524 1524 1524 1523 1523 1524 1524 1524 1524 1524 1525 1525 1525 1525 1525 1526 1526 1526 1526 1526 1526 1525 1525 1525 1525 1524 1524 1524 1523 1523 1522 1520 1519 1517 1516 1516 1515 1514 1513 1512 1511 1510 1509 1508 1507 1506 1504 1503
1536 1535 1535 1534 1534 1534 1533 1533 1533 1532 1532 1532 1532 1531 1531 1530 1530 1529 1529 1529 1528 1527 1527 1526 1526 1526 1525 1525 1524 1524 1523 1523 1523 1523 1522 1522 1522 1522 1522 1523 1522 1522 1523 1523 1523 1523 1524 1524 1525 1525 1525 1526 1526 1526 1526 1526 1526 1526 1526 1526 1526 1526 1525 1525 1524 1523 1522 1521 1520 1519 1519 1518 1517 1517 1516 1515 1514 1513 1512 1510 1509 1508 1507 1505 1504
1536 1536 1535 1535 1534 1534 1533 1533 1533 1533 1533 1532 1532 1532 1531 1530 1530 1529 1529 1528 1528 1527 1526 1526 1526 1525 1525 1525 1524 1523 1523 1522 1522 1522 1522 1521 1521 1521 1522 1522 1522 1522 1522 1523 1523 1524 1524 1525 1525 1525 1526 1526 1526 1526 1526 1527 1526 1526 1526 1526 1526 1526 1525 1524 1524 1523 1522 1522 1521 1521 1520 1519 1519 1518 1517 1516 1515 1514 1513 1512 1511 1509 1508 1506 1505
1535 1535 1535 1535 1534 1534 1534 1533 1533 1533 1533 1533 1532 1532 1531 1530 1529 1529 1528 1528 1528 1527 1526 1526 1525 1525 1525 1524 1523 1523 1522 1522 1522 1521 1521 1521 1522 1522 1522 1522 1522 1523 1523 1524 1524 1525 1525 1525 1526 1526 1526 1526 1526 1527 1527 1527 1527 1527 1527 1526 1526 1525 1525 1524 1524 1523 1523 1523 1522 1522 1521 1521 1520 1519 1518 1518 1517 1515 1514 1513 1512 1510 1509 1507 1506
1535 1534 1534 1534 1534 1534 1533 1533 1533 1533 1533 1533 1532 1532 1531 1530 1529 1529 1528 1528 1527 1527 1526 1526 1526 1525 1524 1524 1523 1522 1522 1522 1522 1522 1522 1522 1523 1523 1523 1523 1523 1524 1524 1525 1525 1526 1526 1526 1526 1526 1526 1527 1527 1527 1527 1527 1527 1527 1527 1526 1526 1525 1525 1524 1524 1524 1524 1523 1523 1523 1522 1522 1521 1520 1520 1519 1518 1517 1515 1514 1512 1511 1509 1508 1507
1534 1533 1533 1534 1534 1533 1533 1533 1533 1533 1533 1533 1532 1531 1531 1530 1529 1528 1528 1527 1527 1527 1527 1526 1526 1525 1525 1524 1523 1523 1523 1523 1523 1523 1524 1524 1524 1524 1524 1525 1525 1525 1526 1526 1526 1526 1527 1527 1527 1527 1527 1527 1527 1527 1528 1528 1527 1527 1527 1526 1526 1525 1525 1525 1525 1524 1524 1524 1524 1523 1523 1522 1522 1521 1521 1520 1519 1518 1516 1515 1513 1512 1510 1509 1508
1533 1532 1532 1533 1534 1533 1532 1533 1533 1533 1533 1533 1532 1531 1530 1530 1529 1528 1528 1527 1528 1528 1527 1527 1527 1526 1525 1525 1524 1523 1523 1524 1524 1525 1525 1526 1526 1526 1526 1526 1526 1527 1527 1527 1527 1527 1527 1527 1527 1527 1527 1528 1528 1528 1528 1528 1527 1527 1527 1526 1526 1526 1525 1525 1525 1525 1525 1525 1524 1524 1523 1523 1523 1522 1521 1520 1519 1518 1517 1515 1514 1512 1511 1510 1509
1533 1533 1533 1534 1534 1533 1533 1533 1533 1533 1533 1532 1532 1531 1530 1529 1529 1528 1528 1528 1528 1528 1528 1528 1527 1527 1526 1525 1524 1524 1524 1524 1525 1526 1526 1527 1527 1527 1527 1527 1527 1527 1527 1527 1527 1527 1527 1527 1528 1528 1528 1528 1528 1528 1528 1528 1527 1527 1527 1526 1526 1526 1526 1526 1525 1525 1525 1525 1525 1525 1524 1524 1523 1522 1521 1520 1519 1518 1517 1516 1514 1513 1512 1510 1510
1534 1534 1534 1534 1534 1534 1534 1533 1533 1533 1533 1532 1532 1531 1530 1529 1529 1529 1528 1528 1528 1528 1528 1528 1528 1527 1526 1526 1525 1525 1525 1525 1526 1527 1527 1528 1528 1528 1528 1528 1528 1528 1528 1528 1528 1528 1527 1527 1528 1528 1528 1528 1528 1528 1528 1527 1527 1527 1527 1527 1527 1527 1526 1526 1526 1526 1526 1526 1526 1525 1524 1524 1523 1522 1521 1520 1519 1518 1517 1516 1515 1514 1512 1511 1510
1534 1534 1534 1534 1534 1534 1533 1533 1532 1532 1533 1532 1532 1531 1531 1530 1529 1529 1528 1528 1528 1529 1528 1528 1528 1528 1527 1527 1526 1526 1526 1527 1527 1528 1528 1528 1528 1529 1529 1529 1529 1529 1529 1528 1528 1528 1528 1528 1528 1528 1528 1528 1527 1527 1527 1527 1527 1527 1527 1527 1527 1527 1527 1527 1526 1526 1526 1526 1526 1525 1524 1524 1523 1522 1521 1520 1519 1518 1517 1516 1515 1514 1513 1512 1511
1535 1534 1533 1533 1533 1533 1532 1532 1532 1532 1532 1532 1532 1531 1531 1530 1529 1529 1529 1528 1528 1528 1528 1528 1528 1528 1528 1528 1527 1527 1527 1528 1528 1528 1528 1529 1529 1529 1529 1529 1529 1529 1529 1529 1528 1528 1528 1528 1528 1527 1527 1527 1527 1527 1527 1527 1527 1527 1527 1527 1527 1527 1527 1527 1527 1527 1526 1526 1526 1525 1524 1523 1522 1521 1520 1519 1519 1518 1517 1516 1515 1515 1514 1513 1512
1534 1534 1533 1533 1532 1532 1532 1531 1531 1531 1531 1531 1531 1531 1530 1530 1530 1529 1528 1528 1528 1528 1528 1528 1528 1528 1528 1528 1528 1528 1528 1529 1529 1529 1529 1529 1529 1529 1529 1529 1529 1529 1529 1528 1528 1528 1528 1528 1527 1527 1527 1527 1527 1527 1527 1527 1527 1528 1528 1528 1528 1528 1527 1527 1527 1527 1526 1526 1525 1524 1524 1523 1522 1521 1520 1519 1518 1517 1517 1516 1515 1515 1514 1514 1513
1534 1533 1533 1532 1532 1531 1531 1531 1531 1531 1530 1530 1530 1530 1530 1530 1529 1529 1528 1528 1528 1528 1528 1528 1528 1528 1528 1528 1528 1528 1528 1529 1529 1529 1529 1529 1529 1529 1529 1529 1528 1528 1528 1528 1528 1528 1528 1527 1527 1527 1527 1527 1527 1527 1528 1528 1528 1528 1528 1528 1528 1528 1528 1527 1527 1526 1526 1525 1525 1524 1523 1522 1521 1520 1519 1518 1517 1516 1516 1515 1515 1515 1514 1514 1514